Skip Page Navigation
NASA JPL Caltech
NASA Logo - Jet Propulsion Laboratory + View the NASA Portal
+ Center for Near-Earth Object Studies
JPL Home Earth Solar System Stars & Galaxies Technology
JPL Solar System Dynamics
BODIES ORBITS EPHEMERIDES TOOLS PHYSICAL DATA DISCOVERY FAQ SITE MAP
JPL Small-Body Database Browser
Search: [ help ]  
765 Mattiaca (A917 SS)
Classification: Main-belt Asteroid          SPK-ID: 2000765
Ephemeris | Orbit Diagram | Orbital Elements | Mission Design | Physical Parameters | Discovery Circumstances | Close-Approach Data ]

[ show orbit diagram ]
Orbital Elements at Epoch 2459000.5 (2020-May-31.0) TDB
Reference: JPL 30 (heliocentric ecliptic J2000)
 Element Value Uncertainty (1-sigma)   Units 
e .2848373340285684 5.1157e-08  
a 2.545423941437198 8.5708e-09 au
q 1.820392171985736 1.3132e-07 au
i 5.533600702134493 4.3454e-06 deg
node 326.2945910107983 4.5214e-05 deg
peri 71.89471108828359 4.619e-05 deg
M 66.80718344178726 9.7765e-06 deg
tp 2458725.229751108577
(2019-Aug-29.72975111)
4.0404e-05 TDB
period 1483.332846792757
4.06
7.4919e-06
2.051e-08
d
yr
n .2426967088191888 1.2258e-09 deg/d
Q 3.270455710888661 1.1012e-08 au
  Orbit Determination Parameters
   # obs. used (total)      2201  
   data-arc span      38929 days (106.58 yr)  
   first obs. used      1913-09-26  
   last obs. used      2020-04-26  
   planetary ephem.      DE431  
   SB-pert. ephem.      SB431-N16  
   condition code      0  
   norm. resid. RMS      .43537  
   source      ORB  
   producer      Otto Matic  
   solution date      2020-May-20 01:12:11  

Additional Information
 Earth MOID = .836837 au 
 Jupiter MOID = 2.20958 au 
 T_jup = 3.379 
[ show covariance matrix ]

Ephemeris | Orbit Diagram | Orbital Elements | Mission Design | Physical Parameters | Discovery Circumstances | Close-Approach Data ]

Physical Parameter Table
Parameter Symbol Value Units Sigma Reference Notes
absolute magnitude H 12.3   n/a MPO267709  
diameter diameter 7.991 km 0.962 urn:nasa:pds:neowise_diameters_albedos::2.0[mainbelt] (http://adsabs.harvard.edu/abs/2011ApJ...741...68M)  
rotation period rot_per 3.4640 h n/a LCDB (Rev. 2019-August); Warner et al., 2009 Published Reference List:
[Pilcher, F. (2012) Minor Planet Bull. 39, 171-173.]
geometric albedo albedo 0.303   0.096 urn:nasa:pds:neowise_diameters_albedos::2.0[mainbelt] (http://adsabs.harvard.edu/abs/2011ApJ...741...68M)  

765 Mattiaca (A917 SS)          Discovered 1913-Sep-26 by Kaiser, F. at Heidelberg
Reference: DISCOVERY.DBLast Updated: 2003-08-29

[ show close-approach data ]
Alternate Designations
 A917 SS = 1939 BV = 1939 CJ1 = 1939 DO = 1958 XB1 = 1968 DB1 = A913 SG 
Ephemeris | Orbit Diagram | Orbital Elements | Mission Design | Physical Parameters | Discovery Circumstances | Close-Approach Data ]
ABOUT SSD CREDITS/AWARDS PRIVACY/COPYRIGHT GLOSSARY LINKS
FirstGov 2020-Sep-21 01:15 UT
(server date/time)  
NASA Home Page
Site Manager:   Ryan S. Park
Webmaster  Alan B. Chamberlin